sat.trackr.live / text

‹ back to catalog

STARLINK-36891

NORAD 68024 · 2026-040K

PAYLOAD ACTIVE UNKNOWN

§ Identity

Operator
Country
US
Launch date
2026-03-01
Launch site
AFWTR
Launch vehicle
Mass (kg)
RCS (m²)

Purposes: comms

External: N2YO · Heavens-Above · Gunter

§ Orbital elements

Epoch: 2026-05-25T02:37:06.513024Z

Period
93.91 min
Inclination
97.2843°
Eccentricity
0.0001262
Mean motion
15.33461130 rev/d
Perigee alt
464.6 km
Apogee alt
466.4 km
Semi-major
6,843.6 km
B*
8.7701e-4
RAAN
94.1097°
Arg perigee
94.8334°
Mean anomaly
265.3053°
Rev number
1,317

§ Raw data

STARLINK-368911 68024U 26040K   26145.10910316  .00028359  00000+0  87701-3 0  99932 68024  97.2843  94.1097 0001262  94.8334 265.3053 15.33461130 13170

JSON: /api/v1/satellites/68024 · /tle

For live sub-satellite position, see the globe view (requires WebGL).

§ Visibility from observer

Set your observer location to see the next 7 days of passes ≥ 10°. The values pass through the URL so the page stays shareable.

No JS? Fill the form by hand. The geolocation button needs JavaScript.